Budapest Ferihegy, Hungary

10:18 PM CEST on September 26, 2017 (GMT +0200)
Ferihegy

Weather History for LHBP - July, 2013

Change the Weather History Date:

Tuesday, July 30, 2013

  Actual Average Record
Temperature  
Mean Temperature 76 °F -  
Max Temperature 84 °F 77 °F 91 °F (2005)
Min Temperature 69 °F 56 °F 48 °F (2005)
Cooling Degree Days 12    
Growing Degree Days 26 (Base 50)    
Moisture  
Dew Point 58 °F    
Average Humidity 56    
Maximum Humidity 88    
Minimum Humidity 30    
Precipitation  
Precipitation 0.00 in - - ()
Sea Level Pressure  
Sea Level Pressure 29.96 in    
Wind  
Wind Speed 15 mph ()    
Max Wind Speed 28 mph    
Max Gust Speed 38 mph    
Visibility 6.2 miles    
Events Rain    
Averages and records for this station are not official NWS values.
T = Trace of Precipitation, MM = Missing Value Source: Averaged Metar Reports

Daily Weather History Graph

Daily Weather History Graph

Search for Another Location

Airport or City:

Trip Planner

Search our weather history database for the weather conditions in past years. The results will help you decide how hot, cold, wet, or windy it might be!

Date:

Astronomy

Jul. 30, 2013 Rise Set
Actual Time 5:18 AM CEST 8:19 PM CEST
Civil Twilight 4:42 AM CEST 8:55 PM CEST
Nautical Twilight 3:55 AM CEST 9:42 PM CEST
Astronomical Twilight 2:58 AM CEST 10:38 PM CEST
Moon No Moon Rise 2:19 PM CEST (7/30)
Length of Visible Light 16h 13m
Length of Day
15h 01m
Last Quarter, 43% of the Moon is Illuminated
Jul 30
Last Quarter
Aug 6
New
Aug 14
First Quarter
Aug 21
Full
Aug 28
Last Quarter

Hourly Weather History & Observations

Time (CEST) Temp. Heat Index Dew Point Humidity Pressure Visibility Wind Dir Wind Speed Gust Speed Precip Events Conditions
12:00 AM 84.2 °F - 50.0 °F 30% 29.89 in - West 13.8 mph - N/A   Clear
12:30 AM 82.4 °F - 51.8 °F 35% 29.89 in - WSW 11.5 mph - N/A   Clear
1:00 AM 80.6 °F - 51.8 °F 37% 29.89 in 6.2 mi SW 8.1 mph - N/A   Partly Cloudy
1:30 AM 78.8 °F - 51.8 °F 39% 29.89 in 6.2 mi SW 8.1 mph - N/A   Partly Cloudy
2:00 AM 80.6 °F 80.3 °F 53.6 °F 39% 29.92 in 6.2 mi WSW 17.3 mph - N/A   Mostly Cloudy
2:30 AM 78.8 °F - 57.2 °F 47% 29.89 in 6.2 mi West 17.3 mph - N/A   Mostly Cloudy
3:00 AM 78.8 °F - 60.8 °F 54% 29.92 in 6.2 mi West 13.8 mph - N/A   Mostly Cloudy
3:30 AM 75.2 °F - 64.4 °F 69% 29.92 in 6.2 mi WNW 11.5 mph - N/A Rain Light Rain Showers
4:00 AM 71.6 °F - 68.0 °F 88% 29.92 in 6.2 mi WNW 17.3 mph - N/A Rain Light Rain Showers
4:30 AM 71.6 °F - 68.0 °F 88% 29.89 in 6.2 mi NNW 10.4 mph - N/A Rain Light Rain Showers
5:00 AM 71.6 °F - 68.0 °F 88% 29.92 in 6.2 mi West 15.0 mph - N/A   Mostly Cloudy
5:30 AM 69.8 °F - 66.2 °F 88% 29.92 in 6.2 mi WNW 13.8 mph - N/A   Mostly Cloudy
6:00 AM 69.8 °F - 64.4 °F 83% 29.95 in 6.2 mi WNW 15.0 mph - N/A   Mostly Cloudy
6:30 AM 69.8 °F - 64.4 °F 83% 29.95 in 6.2 mi WNW 15.0 mph - N/A   Mostly Cloudy
7:00 AM 69.8 °F - 62.6 °F 78% 29.95 in 6.2 mi West 11.5 mph - N/A   Mostly Cloudy
7:30 AM 69.8 °F - 62.6 °F 78% 29.95 in 6.2 mi West 17.3 mph - N/A   Scattered Clouds
8:00 AM 69.8 °F - 62.6 °F 78% 29.95 in 6.2 mi WNW 18.4 mph - N/A   Scattered Clouds
8:30 AM 71.6 °F - 62.6 °F 73% 29.95 in 6.2 mi WNW 18.4 mph - N/A   Scattered Clouds
9:00 AM 71.6 °F - 60.8 °F 69% 29.95 in 6.2 mi WNW 17.3 mph - N/A   Scattered Clouds
9:30 AM 73.4 °F - 60.8 °F 65% 29.98 in 6.2 mi WNW 21.9 mph - N/A   Scattered Clouds
10:00 AM 75.2 °F - 60.8 °F 61% 29.95 in 6.2 mi WNW 23.0 mph - N/A   Scattered Clouds
10:30 AM 77.0 °F - 60.8 °F 57% 29.98 in 6.2 mi West 23.0 mph - N/A   Scattered Clouds
11:00 AM 78.8 °F - 60.8 °F 54% 29.98 in 6.2 mi West 24.2 mph - N/A   Scattered Clouds
11:30 AM 78.8 °F - 60.8 °F 54% 29.98 in 6.2 mi WNW 23.0 mph - N/A   Scattered Clouds
12:00 PM 77.0 °F - 59.0 °F 54% 29.98 in 6.2 mi West 24.2 mph - N/A   Scattered Clouds
12:30 PM 77.0 °F - 59.0 °F 54% 29.98 in 6.2 mi WNW 26.5 mph - N/A   Scattered Clouds
1:00 PM 75.2 °F - 57.2 °F 53% 29.98 in 6.2 mi WNW 27.6 mph - N/A   Scattered Clouds
1:30 PM 75.2 °F - 57.2 °F 53% 29.98 in 6.2 mi WNW 21.9 mph - N/A   Scattered Clouds
2:00 PM 77.0 °F - 59.0 °F 54% 29.98 in 6.2 mi West 20.7 mph - N/A   Scattered Clouds
2:30 PM 78.8 °F - 57.2 °F 47% 29.98 in 6.2 mi WNW 21.9 mph - N/A   Scattered Clouds
3:00 PM 78.8 °F - 57.2 °F 47% 29.98 in 6.2 mi WNW 23.0 mph - N/A   Partly Cloudy
3:30 PM 78.8 °F - 57.2 °F 47% 29.98 in 6.2 mi WNW 26.5 mph 38.0 mph N/A   Partly Cloudy
4:00 PM 78.8 °F - 57.2 °F 47% 29.98 in 6.2 mi WNW 24.2 mph - N/A   Partly Cloudy
4:30 PM 78.8 °F - 53.6 °F 42% 29.98 in 6.2 mi NW 26.5 mph - N/A   Partly Cloudy
5:00 PM 78.8 °F - 53.6 °F 42% 29.98 in - NW 26.5 mph - N/A   Clear
5:30 PM 78.8 °F - 53.6 °F 42% 29.98 in - WNW 26.5 mph - N/A   Clear
6:00 PM 78.8 °F - 55.4 °F 44% 29.98 in 6.2 mi WNW 25.3 mph 38.0 mph N/A   Partly Cloudy
6:30 PM 77.0 °F - 55.4 °F 47% 29.98 in - WNW 23.0 mph - N/A   Clear
7:00 PM 77.0 °F - 55.4 °F 47% 29.98 in - NW 20.7 mph - N/A   Clear
7:30 PM 77.0 °F - 57.2 °F 50% 29.98 in - NW 16.1 mph - N/A   Clear
8:00 PM 75.2 °F - 55.4 °F 50% 29.98 in - NW 16.1 mph - N/A   Clear
8:30 PM 75.2 °F - 53.6 °F 47% 30.01 in - WNW 17.3 mph - N/A   Clear
9:00 PM 73.4 °F - 53.6 °F 50% 30.01 in - NW 11.5 mph - N/A   Clear
9:30 PM 73.4 °F - 53.6 °F 50% 30.01 in - NW 6.9 mph - N/A   Clear
10:00 PM 73.4 °F - 53.6 °F 50% 30.01 in - NW 8.1 mph - N/A   Clear
10:30 PM 73.4 °F - 53.6 °F 50% 30.04 in - NW 9.2 mph - N/A   Clear
11:00 PM 71.6 °F - 53.6 °F 53% 30.04 in - NW 9.2 mph - N/A   Clear
11:30 PM 69.8 °F - 53.6 °F 56% 30.04 in - NW 10.4 mph - N/A   Clear